| time (UTC) | temp F | wind direction | speed MPH | gust MPH | rain 1hr in | rain 24hr in | rain mn in | humidity % | barometer mb |
| 20260509221818 | 100 | 240 | 14.0 | 20.0 | 0.00 | 0.00 | 0.00 | 11 | 1006.9 |
| 20260509221351 | 100 | 310 | 13.0 | 25.0 | 0.00 | 0.00 | 0.00 | 11 | 1007.0 |
| 20260509220824 | 100 | 248 | 11.0 | 20.0 | 0.00 | 0.00 | 0.00 | 11 | 1007.0 |
| 20260509220315 | 99 | 227 | 10.0 | 20.0 | 0.00 | 0.00 | 0.00 | 11 | 1007.2 |
| 20260509215826 | 100 | 255 | 14.0 | 19.0 | 0.00 | 0.00 | 0.00 | 11 | 1007.3 |
| 20260509215316 | 100 | 259 | 14.0 | 19.0 | 0.00 | 0.00 | 0.00 | 11 | 1007.3 |
| 20260509214829 | 100 | 180 | 7.0 | 13.0 | 0.00 | 0.00 | 0.00 | 11 | 1007.3 |
| 20260509214319 | 101 | 238 | 8.0 | 17.0 | 0.00 | 0.00 | 0.00 | 11 | 1007.4 |
| 20260509213817 | 100 | 205 | 9.0 | 17.0 | 0.00 | 0.00 | 0.00 | 11 | 1007.5 |
| 20260509213327 | 100 | 283 | 10.0 | 14.0 | 0.00 | 0.00 | 0.00 | 11 | 1007.5 |
| 20260509212821 | 100 | 223 | 5.0 | 16.0 | 0.00 | 0.00 | 0.00 | 11 | 1007.5 |
| 20260509212313 | 100 | 253 | 10.0 | 16.0 | 0.00 | 0.00 | 0.00 | 11 | 1007.6 |
| 20260509211826 | 99 | 276 | 3.0 | 11.0 | 0.00 | 0.00 | 0.00 | 11 | 1007.7 |
| 20260509211318 | 99 | 267 | 8.0 | 17.0 | 0.00 | 0.00 | 0.00 | 11 | 1007.8 |
| 20260509210831 | 100 | 291 | 13.0 | 17.0 | 0.00 | 0.00 | 0.00 | 11 | 1007.8 |
| 20260509210324 | 100 | 249 | 5.0 | 11.0 | 0.00 | 0.00 | 0.00 | 11 | 1007.9 |
| 20260509205814 | 100 | 259 | 6.0 | 9.0 | 0.00 | 0.00 | 0.00 | 11 | 1008.0 |
| 20260509205347 | 99 | 313 | 0.0 | 12.0 | 0.00 | 0.00 | 0.00 | 11 | 1008.1 |
| 20260509204824 | 99 | 282 | 5.0 | 9.0 | 0.00 | 0.00 | 0.00 | 11 | 1008.2 |
| 20260509204336 | 99 | 284 | 6.0 | 15.0 | 0.00 | 0.00 | 0.00 | 10 | 1008.2 |
| 20260509203849 | 99 | 238 | 11.0 | 15.0 | 0.00 | 0.00 | 0.00 | 11 | 1008.3 |
| 20260509203320 | 99 | 269 | 11.0 | 20.0 | 0.00 | 0.00 | 0.00 | 10 | 1008.3 |
| 20260509202813 | 99 | 215 | 10.0 | 20.0 | 0.00 | 0.00 | 0.00 | 11 | 1008.3 |
| 20260509202325 | 99 | 240 | 5.0 | 8.0 | 0.00 | 0.00 | 0.00 | 11 | 1008.4 |
| 20260509201837 | 98 | 292 | 1.0 | 10.0 | 0.00 | 0.00 | 0.00 | 11 | 1008.5 |
| 20260509201328 | 98 | 279 | 6.0 | 13.0 | 0.00 | 0.00 | 0.00 | 11 | 1008.5 |
| 20260509200820 | 98 | 259 | 6.0 | 13.0 | 0.00 | 0.00 | 0.00 | 11 | 1008.5 |
| 20260509200316 | 99 | 295 | 9.0 | 15.0 | 0.00 | 0.00 | 0.00 | 11 | 1008.6 |
| 20260509195825 | 99 | 179 | 9.0 | 15.0 | 0.00 | 0.00 | 0.00 | 11 | 1008.6 |
| 20260509195316 | 99 | 212 | 4.0 | 8.0 | 0.00 | 0.00 | 0.00 | 12 | 1008.7 |
| 20260509194829 | 98 | 167 | 5.0 | 9.0 | 0.00 | 0.00 | 0.00 | 11 | 1008.7 |
| 20260509194319 | 98 | 192 | 7.0 | 10.0 | 0.00 | 0.00 | 0.00 | 11 | 1008.8 |
| 20260509193831 | 97 | 180 | 8.0 | 14.0 | 0.00 | 0.00 | 0.00 | 11 | 1008.9 |
| 20260509193322 | 97 | 288 | 8.0 | 14.0 | 0.00 | 0.00 | 0.00 | 12 | 1008.9 |
| 20260509192813 | 96 | 225 | 6.0 | 11.0 | 0.00 | 0.00 | 0.00 | 12 | 1008.9 |
| 20260509192324 | 96 | 240 | 4.0 | 14.0 | 0.00 | 0.00 | 0.00 | 13 | 1008.9 |
| 20260509191820 | 96 | 257 | 8.0 | 13.0 | 0.00 | 0.00 | 0.00 | 13 | 1009.0 |
| 20260509191351 | 96 | 202 | 5.0 | 13.0 | 0.00 | 0.00 | 0.00 | 14 | 1009.2 |
| 20260509190822 | 96 | 284 | 10.0 | 13.0 | 0.00 | 0.00 | 0.00 | 14 | 1009.2 |
| 20260509190314 | 95 | 196 | 7.0 | 11.0 | 0.00 | 0.00 | 0.00 | 13 | 1009.3 |
| 20260509185822 | 95 | 164 | 6.0 | 15.0 | 0.00 | 0.00 | 0.00 | 13 | 1009.3 |
| 20260509185332 | 95 | 183 | 6.0 | 14.0 | 0.00 | 0.00 | 0.00 | 14 | 1009.3 |
| 20260509184824 | 95 | 265 | 5.0 | 11.0 | 0.00 | 0.00 | 0.00 | 14 | 1009.3 |
| 20260509184315 | 95 | 254 | 5.0 | 11.0 | 0.00 | 0.00 | 0.00 | 14 | 1009.3 |
| 20260509183827 | 94 | 246 | 6.0 | 10.0 | 0.00 | 0.00 | 0.00 | 13 | 1009.4 |
| 20260509183319 | 94 | 246 | 7.0 | 11.0 | 0.00 | 0.00 | 0.00 | 13 | 1009.5 |
| 20260509182814 | 94 | 256 | 3.0 | 13.0 | 0.00 | 0.00 | 0.00 | 13 | 1009.5 |
| 20260509182325 | 94 | 256 | 9.0 | 13.0 | 0.00 | 0.00 | 0.00 | 13 | 1009.6 |
| 20260509181817 | 93 | 261 | 6.0 | 14.0 | 0.00 | 0.00 | 0.00 | 13 | 1009.5 |
| 20260509181328 | 93 | 234 | 8.0 | 15.0 | 0.00 | 0.00 | 0.00 | 14 | 1009.6 |
| 20260509180820 | 93 | 303 | 9.0 | 15.0 | 0.00 | 0.00 | 0.00 | 15 | 1009.6 |
| 20260509180313 | 93 | 276 | 11.0 | 14.0 | 0.00 | 0.00 | 0.00 | 15 | 1009.7 |
| 20260509175822 | 93 | 282 | 10.0 | 14.0 | 0.00 | 0.00 | 0.00 | 14 | 1009.6 |
| 20260509175334 | 92 | 328 | 8.0 | 16.0 | 0.00 | 0.00 | 0.00 | 14 | 1009.6 |
| 20260509174827 | 92 | 268 | 10.0 | 17.0 | 0.00 | 0.00 | 0.00 | 15 | 1009.6 |
| 20260509174319 | 92 | 268 | 10.0 | 17.0 | 0.00 | 0.00 | 0.00 | 15 | 1009.6 |
| 20260509173816 | 92 | 248 | 9.0 | 14.0 | 0.00 | 0.00 | 0.00 | 16 | 1009.7 |
| 20260509173328 | 92 | 274 | 10.0 | 14.0 | 0.00 | 0.00 | 0.00 | 16 | 1009.7 |
| 20260509172820 | 91 | 254 | 10.0 | 14.0 | 0.00 | 0.00 | 0.00 | 17 | 1009.7 |
| 20260509172353 | 91 | 248 | 10.0 | 14.0 | 0.00 | 0.00 | 0.00 | 16 | 1009.7 |
| 20260509171825 | 91 | 257 | 11.0 | 17.0 | 0.00 | 0.00 | 0.00 | 17 | 1009.7 |
| 20260509171315 | 90 | 277 | 13.0 | 17.0 | 0.00 | 0.00 | 0.00 | 17 | 1009.7 |
| 20260509170828 | 90 | 269 | 12.0 | 15.0 | 0.00 | 0.00 | 0.00 | 17 | 1009.7 |
| 20260509170319 | 90 | 271 | 11.0 | 14.0 | 0.00 | 0.00 | 0.00 | 18 | 1009.7 |
| 20260509165831 | 89 | 266 | 12.0 | 17.0 | 0.00 | 0.00 | 0.00 | 17 | 1009.7 |
| 20260509165328 | 89 | 262 | 14.0 | 18.0 | 0.00 | 0.00 | 0.00 | 18 | 1009.6 |
| 20260509164821 | 89 | 265 | 14.0 | 19.0 | 0.00 | 0.00 | 0.00 | 18 | 1009.6 |
| 20260509164313 | 88 | 271 | 15.0 | 20.0 | 0.00 | 0.00 | 0.00 | 19 | 1009.6 |
| 20260509163825 | 88 | 244 | 15.0 | 23.0 | 0.00 | 0.00 | 0.00 | 19 | 1009.7 |
| 20260509163316 | 88 | 268 | 16.0 | 23.0 | 0.00 | 0.00 | 0.00 | 19 | 1009.6 |
| 20260509162830 | 87 | 261 | 16.0 | 21.0 | 0.00 | 0.00 | 0.00 | 21 | 1009.6 |
| 20260509162323 | 87 | 278 | 16.0 | 20.0 | 0.00 | 0.00 | 0.00 | 21 | 1009.6 |
| 20260509161817 | 87 | 246 | 15.0 | 20.0 | 0.00 | 0.00 | 0.00 | 21 | 1009.6 |
| 20260509161312 | 87 | 294 | 14.0 | 19.0 | 0.00 | 0.00 | 0.00 | 22 | 1009.6 |
| 20260509160823 | 86 | 254 | 14.0 | 19.0 | 0.00 | 0.00 | 0.00 | 23 | 1009.5 |
| 20260509160315 | 86 | 273 | 13.0 | 18.0 | 0.00 | 0.00 | 0.00 | 23 | 1009.5 |
| 20260509155824 | 85 | 286 | 13.0 | 19.0 | 0.00 | 0.00 | 0.00 | 24 | 1009.5 |
| 20260509155315 | 85 | 278 | 14.0 | 19.0 | 0.00 | 0.00 | 0.00 | 24 | 1009.5 |
| 20260509154848 | 85 | 279 | 14.0 | 20.0 | 0.00 | 0.00 | 0.00 | 25 | 1009.5 |
| 20260509154320 | 84 | 302 | 13.0 | 22.0 | 0.00 | 0.00 | 0.00 | 25 | 1009.4 |
| 20260509153834 | 84 | 297 | 16.0 | 22.0 | 0.00 | 0.00 | 0.00 | 25 | 1009.4 |
| 20260509153326 | 84 | 278 | 15.0 | 21.0 | 0.00 | 0.00 | 0.00 | 24 | 1009.4 |
| 20260509152823 | 83 | 265 | 17.0 | 21.0 | 0.00 | 0.00 | 0.00 | 25 | 1009.4 |
| 20260509152335 | 82 | 321 | 14.0 | 20.0 | 0.00 | 0.00 | 0.00 | 26 | 1009.4 |
| 20260509151826 | 82 | 297 | 14.0 | 19.0 | 0.00 | 0.00 | 0.00 | 27 | 1009.4 |
| 20260509151318 | 81 | 272 | 14.0 | 19.0 | 0.00 | 0.00 | 0.00 | 29 | 1009.4 |
| 20260509150832 | 81 | 272 | 14.0 | 20.0 | 0.00 | 0.00 | 0.00 | 29 | 1009.4 |
| 20260509150324 | 80 | 290 | 13.0 | 20.0 | 0.00 | 0.00 | 0.00 | 30 | 1009.4 |
| 20260509145813 | 80 | 266 | 14.0 | 19.0 | 0.00 | 0.00 | 0.00 | 29 | 1009.3 |
| 20260509145344 | 79 | 294 | 13.0 | 19.0 | 0.00 | 0.00 | 0.00 | 29 | 1009.4 |
| 20260509144835 | 79 | 277 | 15.0 | 19.0 | 0.00 | 0.00 | 0.00 | 29 | 1009.3 |
| 20260509144326 | 79 | 301 | 15.0 | 18.0 | 0.00 | 0.00 | 0.00 | 29 | 1009.2 |
| 20260509143815 | 79 | 277 | 14.0 | 19.0 | 0.00 | 0.00 | 0.00 | 30 | 1009.1 |
| 20260509143346 | 78 | 291 | 14.0 | 19.0 | 0.00 | 0.00 | 0.00 | 30 | 1009.1 |
| 20260509142821 | 78 | 275 | 12.0 | 16.0 | 0.00 | 0.00 | 0.00 | 30 | 1009.0 |
| 20260509142332 | 77 | 287 | 12.0 | 17.0 | 0.00 | 0.00 | 0.00 | 31 | 1009.0 |
| 20260509141845 | 77 | 300 | 12.0 | 16.0 | 0.00 | 0.00 | 0.00 | 32 | 1009.0 |
| 20260509141314 | 76 | 318 | 13.0 | 17.0 | 0.00 | 0.00 | 0.00 | 33 | 1008.9 |
| 20260509140846 | 76 | 290 | 12.0 | 16.0 | 0.00 | 0.00 | 0.00 | 33 | 1008.9 |
| 20260509140316 | 75 | 310 | 12.0 | 15.0 | 0.00 | 0.00 | 0.00 | 33 | 1008.9 |
| 20260509135826 | 75 | 283 | 13.0 | 15.0 | 0.00 | 0.00 | 0.00 | 33 | 1008.8 |
| 20260509135318 | 75 | 290 | 11.0 | 15.0 | 0.00 | 0.00 | 0.00 | 32 | 1008.8 |
| 20260509134851 | 75 | 284 | 13.0 | 16.0 | 0.00 | 0.00 | 0.00 | 32 | 1008.8 |
| 20260509134322 | 75 | 284 | 12.0 | 16.0 | 0.00 | 0.00 | 0.00 | 31 | 1008.8 |
| 20260509133818 | 75 | 273 | 11.0 | 15.0 | 0.00 | 0.00 | 0.00 | 30 | 1008.8 |
| 20260509133329 | 75 | 294 | 11.0 | 13.0 | 0.00 | 0.00 | 0.00 | 29 | 1008.7 |
| 20260509132821 | 75 | 301 | 11.0 | 13.0 | 0.00 | 0.00 | 0.00 | 29 | 1008.6 |
| 20260509132333 | 74 | 303 | 10.0 | 15.0 | 0.00 | 0.00 | 0.00 | 29 | 1008.6 |
| 20260509131846 | 73 | 300 | 12.0 | 15.0 | 0.00 | 0.00 | 0.00 | 30 | 1008.6 |
| 20260509131317 | 72 | 297 | 11.0 | 14.0 | 0.00 | 0.00 | 0.00 | 32 | 1008.5 |
| 20260509130831 | 72 | 292 | 10.0 | 13.0 | 0.00 | 0.00 | 0.00 | 32 | 1008.5 |
| 20260509130323 | 72 | 316 | 10.0 | 14.0 | 0.00 | 0.00 | 0.00 | 33 | 1008.4 |
| 20260509125833 | 72 | 317 | 11.0 | 14.0 | 0.00 | 0.00 | 0.00 | 33 | 1008.4 |
| 20260509125329 | 72 | 316 | 11.0 | 14.0 | 0.00 | 0.00 | 0.00 | 35 | 1008.4 |
| 20260509124822 | 72 | 306 | 10.0 | 17.0 | 0.00 | 0.00 | 0.00 | 35 | 1008.4 |
| 20260509124331 | 73 | 302 | 10.0 | 17.0 | 0.00 | 0.00 | 0.00 | 35 | 1008.4 |
| 20260509123824 | 73 | 302 | 13.0 | 16.0 | 0.00 | 0.00 | 0.00 | 36 | 1008.3 |
| 20260509123315 | 73 | 311 | 10.0 | 14.0 | 0.00 | 0.00 | 0.00 | 33 | 1008.2 |
| 20260509122827 | 73 | 320 | 10.0 | 16.0 | 0.00 | 0.00 | 0.00 | 33 | 1008.2 |
| 20260509122318 | 74 | 299 | 10.0 | 16.0 | 0.00 | 0.00 | 0.00 | 32 | 1008.3 |
| 20260509121831 | 73 | 290 | 13.0 | 17.0 | 0.00 | 0.00 | 0.00 | 33 | 1008.3 |
| 20260509121322 | 73 | 299 | 11.0 | 17.0 | 0.00 | 0.00 | 0.00 | 32 | 1008.3 |
| 20260509120817 | 73 | 297 | 11.0 | 16.0 | 0.00 | 0.00 | 0.00 | 32 | 1008.2 |
| 20260509120328 | 73 | 290 | 13.0 | 16.0 | 0.00 | 0.00 | 0.00 | 32 | 1008.2 |
| 20260509115819 | 73 | 296 | 13.0 | 15.0 | 0.00 | 0.00 | 0.00 | 33 | 1008.2 |
| 20260509115330 | 72 | 317 | 11.0 | 15.0 | 0.00 | 0.00 | 0.00 | 35 | 1008.3 |
| 20260509114824 | 72 | 298 | 9.0 | 12.0 | 0.00 | 0.00 | 0.00 | 36 | 1008.3 |
| 20260509114315 | 72 | 307 | 10.0 | 12.0 | 0.00 | 0.00 | 0.00 | 36 | 1008.2 |
| 20260509113848 | 72 | 294 | 9.0 | 14.0 | 0.00 | 0.00 | 0.00 | 37 | 1008.2 |
| 20260509113319 | 72 | 307 | 11.0 | 14.0 | 0.00 | 0.00 | 0.00 | 37 | 1008.2 |
| 20260509112831 | 72 | 309 | 10.0 | 14.0 | 0.00 | 0.00 | 0.00 | 39 | 1008.2 |
| 20260509112326 | 72 | 313 | 11.0 | 14.0 | 0.00 | 0.00 | 0.00 | 39 | 1008.2 |
| 20260509111818 | 72 | 303 | 10.0 | 15.0 | 0.00 | 0.00 | 0.00 | 40 | 1008.1 |
| 20260509111329 | 72 | 289 | 10.0 | 15.0 | 0.00 | 0.00 | 0.00 | 41 | 1008.2 |
| 20260509110822 | 71 | 304 | 10.0 | 14.0 | 0.00 | 0.00 | 0.00 | 42 | 1008.1 |
| 20260509110313 | 72 | 290 | 10.0 | 17.0 | 0.00 | 0.00 | 0.00 | 42 | 1008.2 |
| 20260509105823 | 73 | 295 | 13.0 | 17.0 | 0.00 | 0.00 | 0.00 | 40 | 1008.2 |
| 20260509105314 | 73 | 300 | 14.0 | 18.0 | 0.00 | 0.00 | 0.00 | 40 | 1008.2 |
| 20260509104826 | 73 | 296 | 15.0 | 20.0 | 0.00 | 0.00 | 0.00 | 39 | 1008.2 |
| 20260509104317 | 72 | 297 | 15.0 | 20.0 | 0.00 | 0.00 | 0.00 | 42 | 1008.2 |
| 20260509103814 | 72 | 309 | 14.0 | 18.0 | 0.00 | 0.00 | 0.00 | 45 | 1008.2 |
| 20260509103326 | 71 | 313 | 14.0 | 18.0 | 0.00 | 0.00 | 0.00 | 46 | 1008.2 |
| 20260509102819 | 71 | 302 | 13.0 | 18.0 | 0.00 | 0.00 | 0.00 | 46 | 1008.2 |
| 20260509102349 | 71 | 281 | 14.0 | 18.0 | 0.00 | 0.00 | 0.00 | 47 | 1008.3 |
| 20260509101820 | 71 | 295 | 14.0 | 18.0 | 0.00 | 0.00 | 0.00 | 47 | 1008.3 |
| 20260509101332 | 71 | 306 | 14.0 | 18.0 | 0.00 | 0.00 | 0.00 | 47 | 1008.2 |
| 20260509100844 | 71 | 310 | 14.0 | 18.0 | 0.00 | 0.00 | 0.00 | 48 | 1008.2 |
| 20260509100314 | 72 | 298 | 14.0 | 18.0 | 0.00 | 0.00 | 0.00 | 47 | 1008.3 |
| 20260509095823 | 72 | 304 | 13.0 | 18.0 | 0.00 | 0.00 | 0.00 | 46 | 1008.3 |
| 20260509095315 | 72 | 319 | 13.0 | 16.0 | 0.00 | 0.00 | 0.00 | 45 | 1008.3 |
| 20260509094832 | 72 | 313 | 13.0 | 16.0 | 0.00 | 0.00 | 0.00 | 45 | 1008.3 |
| 20260509094324 | 72 | 313 | 12.0 | 17.0 | 0.00 | 0.00 | 0.00 | 45 | 1008.3 |
| 20260509093817 | 73 | 296 | 11.0 | 19.0 | 0.00 | 0.00 | 0.00 | 45 | 1008.4 |
| 20260509093329 | 73 | 296 | 15.0 | 19.0 | 0.00 | 0.00 | 0.00 | 45 | 1008.4 |
| 20260509092840 | 73 | 293 | 13.0 | 19.0 | 0.00 | 0.00 | 0.00 | 45 | 1008.4 |
| 20260509092329 | 73 | 305 | 15.0 | 19.0 | 0.00 | 0.00 | 0.00 | 45 | 1008.4 |
| 20260509091823 | 73 | 296 | 13.0 | 17.0 | 0.00 | 0.00 | 0.00 | 44 | 1008.5 |
| 20260509091314 | 74 | 292 | 14.0 | 17.0 | 0.00 | 0.00 | 0.00 | 42 | 1008.5 |
| 20260509090827 | 74 | 296 | 12.0 | 18.0 | 0.00 | 0.00 | 0.00 | 42 | 1008.5 |
| 20260509090321 | 73 | 301 | 12.0 | 18.0 | 0.00 | 0.00 | 0.00 | 43 | 1008.6 |
| 20260509085831 | 73 | 314 | 11.0 | 16.0 | 0.00 | 0.00 | 0.00 | 45 | 1008.6 |
| 20260509085323 | 73 | 300 | 12.0 | 15.0 | 0.00 | 0.00 | 0.00 | 45 | 1008.7 |
| 20260509084815 | 73 | 309 | 11.0 | 15.0 | 0.00 | 0.00 | 0.00 | 45 | 1008.7 |
| 20260509084326 | 74 | 323 | 11.0 | 15.0 | 0.00 | 0.00 | 0.00 | 44 | 1008.8 |
| 20260509083839 | 74 | 308 | 12.0 | 16.0 | 0.00 | 0.00 | 0.00 | 44 | 1008.8 |
| 20260509083330 | 74 | 304 | 13.0 | 18.0 | 0.00 | 0.00 | 0.00 | 43 | 1008.9 |
| 20260509082823 | 75 | 311 | 15.0 | 18.0 | 0.00 | 0.00 | 0.00 | 42 | 1008.8 |
| 20260509082314 | 74 | 313 | 12.0 | 15.0 | 0.00 | 0.00 | 0.00 | 41 | 1008.8 |
| 20260509081831 | 74 | 308 | 13.0 | 15.0 | 0.00 | 0.00 | 0.00 | 42 | 1008.8 |
| 20260509081323 | 74 | 302 | 12.0 | 15.0 | 0.00 | 0.00 | 0.00 | 42 | 1008.9 |
| 20260509080815 | 74 | 305 | 12.0 | 15.0 | 0.00 | 0.00 | 0.00 | 43 | 1008.9 |
| 20260509080347 | 74 | 302 | 11.0 | 13.0 | 0.00 | 0.00 | 0.00 | 43 | 1009.0 |
| 20260509075816 | 74 | 285 | 10.0 | 13.0 | 0.00 | 0.00 | 0.00 | 42 | 1009.1 |
| 20260509075328 | 75 | 277 | 11.0 | 14.0 | 0.00 | 0.00 | 0.00 | 42 | 1009.1 |
| 20260509074820 | 75 | 277 | 11.0 | 14.0 | 0.00 | 0.00 | 0.00 | 43 | 1009.2 |
| 20260509074331 | 75 | 273 | 11.0 | 14.0 | 0.00 | 0.00 | 0.00 | 43 | 1009.2 |
| 20260509073824 | 75 | 285 | 12.0 | 14.0 | 0.00 | 0.00 | 0.00 | 43 | 1009.2 |
| 20260509073319 | 75 | 278 | 8.0 | 12.0 | 0.00 | 0.00 | 0.00 | 41 | 1009.2 |
| 20260509072853 | 75 | 273 | 10.0 | 12.0 | 0.00 | 0.00 | 0.00 | 42 | 1009.3 |
| 20260509072321 | 76 | 292 | 10.0 | 12.0 | 0.00 | 0.00 | 0.00 | 42 | 1009.3 |
| 20260509071814 | 76 | 284 | 9.0 | 13.0 | 0.00 | 0.00 | 0.00 | 42 | 1009.4 |
| 20260509071326 | 76 | 279 | 10.0 | 16.0 | 0.00 | 0.00 | 0.00 | 41 | 1009.4 |
| 20260509070819 | 76 | 268 | 12.0 | 19.0 | 0.00 | 0.00 | 0.00 | 41 | 1009.5 |
| 20260509070329 | 76 | 278 | 15.0 | 19.0 | 0.00 | 0.00 | 0.00 | 42 | 1009.4 |
| 20260509065838 | 76 | 268 | 14.0 | 17.0 | 0.00 | 0.00 | 0.00 | 41 | 1009.4 |
| 20260509065349 | 76 | 288 | 13.0 | 19.0 | 0.00 | 0.00 | 0.00 | 41 | 1009.5 |
| 20260509064821 | 76 | 274 | 13.0 | 19.0 | 0.00 | 0.00 | 0.00 | 40 | 1009.6 |
| 20260509064332 | 76 | 279 | 13.0 | 17.0 | 0.00 | 0.00 | 0.00 | 40 | 1009.6 |
| 20260509063844 | 76 | 285 | 13.0 | 17.0 | 0.00 | 0.00 | 0.00 | 39 | 1009.6 |
| 20260509063319 | 76 | 269 | 11.0 | 15.0 | 0.00 | 0.00 | 0.00 | 38 | 1009.6 |
| 20260509062830 | 77 | 283 | 10.0 | 15.0 | 0.00 | 0.00 | 0.00 | 38 | 1009.6 |
| 20260509062322 | 77 | 288 | 11.0 | 17.0 | 0.00 | 0.00 | 0.00 | 38 | 1009.6 |
| 20260509061815 | 77 | 267 | 13.0 | 18.0 | 0.00 | 0.00 | 0.00 | 37 | 1009.4 |
| 20260509061327 | 77 | 279 | 13.0 | 18.0 | 0.00 | 0.00 | 0.00 | 38 | 1009.5 |
| 20260509060819 | 77 | 294 | 12.0 | 17.0 | 0.00 | 0.00 | 0.00 | 37 | 1009.5 |
| 20260509060330 | 78 | 274 | 12.0 | 18.0 | 0.00 | 0.00 | 0.00 | 37 | 1009.5 |
| 20260509055821 | 77 | 269 | 13.0 | 18.0 | 0.00 | 0.00 | 0.00 | 38 | 1009.4 |
| 20260509055317 | 78 | 295 | 12.0 | 15.0 | 0.00 | 0.00 | 0.00 | 37 | 1009.5 |
| 20260509054829 | 78 | 288 | 11.0 | 14.0 | 0.00 | 0.00 | 0.00 | 36 | 1009.5 |
| 20260509054321 | 78 | 296 | 11.0 | 17.0 | 0.00 | 0.00 | 0.00 | 36 | 1009.5 |
| 20260509053814 | 78 | 306 | 10.0 | 17.0 | 0.00 | 0.00 | 0.00 | 35 | 1009.4 |
| 20260509053325 | 79 | 293 | 11.0 | 16.0 | 0.00 | 0.00 | 0.00 | 35 | 1009.4 |
| 20260509052817 | 79 | 298 | 11.0 | 14.0 | 0.00 | 0.00 | 0.00 | 34 | 1009.5 |
| 20260509052327 | 79 | 264 | 10.0 | 13.0 | 0.00 | 0.00 | 0.00 | 33 | 1009.5 |
| 20260509051820 | 80 | 311 | 8.0 | 12.0 | 0.00 | 0.00 | 0.00 | 32 | 1009.5 |
| 20260509051332 | 80 | 294 | 7.0 | 11.0 | 0.00 | 0.00 | 0.00 | 31 | 1009.4 |
| 20260509050825 | 80 | 301 | 8.0 | 12.0 | 0.00 | 0.00 | 0.00 | 30 | 1009.5 |
| 20260509050321 | 81 | 270 | 9.0 | 14.0 | 0.00 | 0.00 | 0.00 | 30 | 1009.4 |
| 20260509045831 | 81 | 261 | 11.0 | 13.0 | 0.00 | 0.00 | 0.00 | 29 | 1009.5 |
| 20260509045342 | 81 | 251 | 10.0 | 14.0 | 0.00 | 0.00 | 0.00 | 28 | 1009.4 |
| 20260509044814 | 81 | 269 | 9.0 | 14.0 | 0.00 | 0.00 | 0.00 | 28 | 1009.4 |
| 20260509044346 | 81 | 273 | 10.0 | 14.0 | 0.00 | 0.00 | 0.00 | 27 | 1009.4 |
| 20260509043817 | 82 | 284 | 10.0 | 21.0 | 0.00 | 0.00 | 0.00 | 27 | 1009.4 |
| 20260509043328 | 82 | 278 | 12.0 | 21.0 | 0.00 | 0.00 | 0.00 | 27 | 1009.3 |
| 20260509042842 | 82 | 286 | 14.0 | 21.0 | 0.00 | 0.00 | 0.00 | 28 | 1009.2 |
| 20260509042312 | 82 | 263 | 17.0 | 23.0 | 0.00 | 0.00 | 0.00 | 30 | 1009.2 |
| 20260509041825 | 81 | 277 | 17.0 | 23.0 | 0.00 | 0.00 | 0.00 | 31 | 1009.1 |
| 20260509041316 | 82 | 252 | 18.0 | 25.0 | 0.00 | 0.00 | 0.00 | 32 | 1009.1 |
| 20260509040828 | 82 | 278 | 19.0 | 25.0 | 0.00 | 0.00 | 0.00 | 31 | 1009.1 |
| 20260509040323 | 82 | 260 | 19.0 | 26.0 | 0.00 | 0.00 | 0.00 | 32 | 1009.1 |
| 20260509035834 | 82 | 287 | 18.0 | 28.0 | 0.00 | 0.00 | 0.00 | 31 | 1009.1 |
| 20260509035325 | 83 | 273 | 22.0 | 28.0 | 0.00 | 0.00 | 0.00 | 31 | 1009.0 |
| 20260509034818 | 83 | 274 | 21.0 | 28.0 | 0.00 | 0.00 | 0.00 | 31 | 1009.0 |
| 20260509034330 | 83 | 263 | 21.0 | 30.0 | 0.00 | 0.00 | 0.00 | 30 | 1008.9 |
| 20260509033820 | 84 | 299 | 21.0 | 30.0 | 0.00 | 0.00 | 0.00 | 30 | 1008.9 |
| 20260509033330 | 84 | 255 | 22.0 | 30.0 | 0.00 | 0.00 | 0.00 | 30 | 1008.8 |
| 20260509032844 | 84 | 269 | 24.0 | 33.0 | 0.00 | 0.00 | 0.00 | 30 | 1008.7 |
| 20260509032314 | 84 | 281 | 22.0 | 33.0 | 0.00 | 0.00 | 0.00 | 30 | 1008.7 |
| 20260509031827 | 84 | 261 | 23.0 | 29.0 | 0.00 | 0.00 | 0.00 | 30 | 1008.7 |
| 20260509031323 | 85 | 280 | 20.0 | 29.0 | 0.00 | 0.00 | 0.00 | 29 | 1008.7 |
| 20260509030816 | 85 | 267 | 20.0 | 30.0 | 0.00 | 0.00 | 0.00 | 28 | 1008.5 |
| 20260509030325 | 85 | 271 | 23.0 | 30.0 | 0.00 | 0.00 | 0.00 | 28 | 1008.5 |
| 20260509025836 | 86 | 281 | 17.0 | 28.0 | 0.00 | 0.00 | 0.00 | 28 | 1008.4 |
| 20260509025325 | 86 | 279 | 19.0 | 30.0 | 0.00 | 0.00 | 0.00 | 28 | 1008.3 |
| 20260509024817 | 86 | 273 | 22.0 | 30.0 | 0.00 | 0.00 | 0.00 | 27 | 1008.3 |
| 20260509024328 | 86 | 289 | 20.0 | 28.0 | 0.00 | 0.00 | 0.00 | 27 | 1008.3 |
| 20260509023820 | 87 | 309 | 19.0 | 30.0 | 0.00 | 0.00 | 0.00 | 26 | 1008.3 |
| 20260509023330 | 87 | 295 | 23.0 | 32.0 | 0.00 | 0.00 | 0.00 | 26 | 1008.2 |
| 20260509022843 | 87 | 274 | 22.0 | 32.0 | 0.00 | 0.00 | 0.00 | 26 | 1008.1 |
| 20260509022313 | 88 | 292 | 20.0 | 26.0 | 0.00 | 0.00 | 0.00 | 25 | 1008.1 |
| 20260509021829 | 88 | 292 | 20.0 | 25.0 | 0.00 | 0.00 | 0.00 | 24 | 1008.0 |
| 20260509021321 | 89 | 277 | 18.0 | 25.0 | 0.00 | 0.00 | 0.00 | 23 | 1008.0 |
| 20260509020831 | 89 | 283 | 20.0 | 26.0 | 0.00 | 0.00 | 0.00 | 23 | 1007.9 |
| 20260509020323 | 89 | 292 | 21.0 | 30.0 | 0.00 | 0.00 | 0.00 | 23 | 1007.9 |
| 20260509015831 | 90 | 291 | 20.0 | 30.0 | 0.00 | 0.00 | 0.00 | 22 | 1007.9 |
| 20260509015323 | 90 | 317 | 20.0 | 28.0 | 0.00 | 0.00 | 0.00 | 21 | 1007.8 |
| 20260509014816 | 91 | 273 | 18.0 | 25.0 | 0.00 | 0.00 | 0.00 | 21 | 1007.8 |
| 20260509014327 | 91 | 277 | 17.0 | 25.0 | 0.00 | 0.00 | 0.00 | 21 | 1007.9 |
| 20260509013820 | 92 | 281 | 17.0 | 25.0 | 0.00 | 0.00 | 0.00 | 20 | 1007.7 |
| 20260509013352 | 92 | 305 | 17.0 | 27.0 | 0.00 | 0.00 | 0.00 | 19 | 1007.7 |
| 20260509012827 | 92 | 284 | 18.0 | 27.0 | 0.00 | 0.00 | 0.00 | 20 | 1007.7 |
| 20260509012317 | 92 | 299 | 19.0 | 29.0 | 0.00 | 0.00 | 0.00 | 19 | 1007.8 |
| 20260509011830 | 93 | 313 | 20.0 | 28.0 | 0.00 | 0.00 | 0.00 | 20 | 1007.8 |
| 20260509011321 | 93 | 277 | 20.0 | 28.0 | 0.00 | 0.00 | 0.00 | 19 | 1007.8 |
| 20260509010815 | 93 | 294 | 18.0 | 28.0 | 0.00 | 0.00 | 0.00 | 20 | 1007.7 |
| 20260509010327 | 93 | 264 | 21.0 | 28.0 | 0.00 | 0.00 | 0.00 | 19 | 1007.7 |
| 20260509005816 | 94 | 274 | 20.0 | 29.0 | 0.00 | 0.00 | 0.00 | 19 | 1007.7 |
| 20260509005328 | 94 | 274 | 22.0 | 29.0 | 0.00 | 0.00 | 0.00 | 18 | 1007.6 |
| 20260509004825 | 94 | 277 | 20.0 | 27.0 | 0.00 | 0.00 | 0.00 | 18 | 1007.7 |
| 20260509004315 | 95 | 313 | 16.0 | 27.0 | 0.00 | 0.00 | 0.00 | 18 | 1007.7 |
| 20260509003828 | 95 | 284 | 17.0 | 28.0 | 0.00 | 0.00 | 0.00 | 16 | 1007.6 |
| 20260509003319 | 95 | 261 | 20.0 | 28.0 | 0.00 | 0.00 | 0.00 | 16 | 1007.6 |
| 20260509002832 | 95 | 252 | 20.0 | 27.0 | 0.00 | 0.00 | 0.00 | 16 | 1007.7 |
| 20260509002322 | 95 | 277 | 20.0 | 30.0 | 0.00 | 0.00 | 0.00 | 15 | 1007.7 |
| 20260509001815 | 96 | 254 | 22.0 | 31.0 | 0.00 | 0.00 | 0.00 | 15 | 1007.7 |
| 20260509001325 | 96 | 284 | 22.0 | 29.0 | 0.00 | 0.00 | 0.00 | 15 | 1007.8 |
| 20260509000817 | 96 | 273 | 23.0 | 31.0 | 0.00 | 0.00 | 0.00 | 15 | 1007.8 |
| 20260509000313 | 96 | 252 | 23.0 | 31.0 | 0.00 | 0.00 | 0.00 | 14 | 1007.7 |
| 20260508235823 | 97 | 280 | 20.0 | 30.0 | 0.00 | 0.00 | 0.00 | 14 | 1007.8 |
| 20260508235314 | 97 | 265 | 24.0 | 30.0 | 0.00 | 0.00 | 0.00 | 12 | 1007.8 |
| 20260508234826 | 96 | 259 | 21.0 | 30.0 | 0.00 | 0.00 | 0.00 | 13 | 1007.8 |
| 20260508234317 | 97 | 250 | 23.0 | 31.0 | 0.00 | 0.00 | 0.00 | 13 | 1007.9 |
| 20260508233831 | 97 | 260 | 23.0 | 29.0 | 0.00 | 0.00 | 0.00 | 12 | 1007.9 |
| 20260508233324 | 97 | 257 | 22.0 | 33.0 | 0.00 | 0.00 | 0.00 | 12 | 1007.9 |
| 20260508232818 | 97 | 266 | 23.0 | 33.0 | 0.00 | 0.00 | 0.00 | 12 | 1007.9 |
| 20260508232349 | 97 | 248 | 23.0 | 32.0 | 0.00 | 0.00 | 0.00 | 12 | 1008.0 |
| 20260508231845 | 98 | 238 | 20.0 | 28.0 | 0.00 | 0.00 | 0.00 | 11 | 1008.0 |
| 20260508231336 | 98 | 263 | 21.0 | 28.0 | 0.00 | 0.00 | 0.00 | 12 | 1008.1 |
| 20260508230849 | 98 | 255 | 21.0 | 28.0 | 0.00 | 0.00 | 0.00 | 11 | 1008.1 |
| 20260508230320 | 98 | 268 | 20.0 | 28.0 | 0.00 | 0.00 | 0.00 | 12 | 1008.0 |
| 20260508225830 | 98 | 248 | 24.0 | 28.0 | 0.00 | 0.00 | 0.00 | 12 | 1008.1 |
| 20260508225323 | 98 | 260 | 19.0 | 27.0 | 0.00 | 0.00 | 0.00 | 11 | 1008.2 |
| 20260508224817 | 98 | 261 | 21.0 | 28.0 | 0.00 | 0.00 | 0.00 | 11 | 1008.2 |
| 20260508224330 | 98 | 247 | 20.0 | 28.0 | 0.00 | 0.00 | 0.00 | 11 | 1008.3 |
| 20260508223823 | 98 | 268 | 20.0 | 26.0 | 0.00 | 0.00 | 0.00 | 11 | 1008.4 |
| 20260508223319 | 98 | 251 | 19.0 | 26.0 | 0.00 | 0.00 | 0.00 | 10 | 1008.4 |
| 20260508222832 | 98 | 261 | 20.0 | 27.0 | 0.00 | 0.00 | 0.00 | 11 | 1008.5 |
| 20260508222325 | 98 | 267 | 19.0 | 28.0 | 0.00 | 0.00 | 0.00 | 10 | 1008.5 |